Temp
14 14 14 14 15 15 15 15 16 16 16 16 17 17 17 17 18 18 18 18 19 19 19 19 19 18 18 19 19 19 20 20 21 21 19 17 16 17 18 19 20 20 21 21 21 22 23 24 25 24 25 25 24 23 21 21 21 21 24 24 23 24 24 23 23 22 22 21 19 18 18 18 18 17 17 17 16 17 17 18 18 19 19 19 19 17 16 16
14 14 14 15 15 15 16 16 16 16 17 17 17 17 17 18 18 18 18 19 19 19 19 19 19 19 19 19 19 19 20 20 22 21 18 17 18 18 19 20 20 20 21 21 22 23 24 24 25 25 25 25 23 22 21 21 21 22 24 24 24 24 22 22 23 22 21 21 19 18 18 18 19 18 18 17 17 17 17 17 17 18 18 19 19 17 16 16
14 15 15 15 15 16 16 16 16 17 17 17 17 18 18 18 18 19 19 19 19 19 19 19 19 19 19 19 19 19 19 20 22 21 19 19 19 19 20 20 20 20 21 21 22 23 23 24 24 24 25 24 23 23 22 21 21 21 22 24 23 21 21 20 21 20 19 20 20 19 18 18 19 19 18 17 18 18 17 18 18 17 18 19 19 19 17 16
15 15 15 15 16 16 16 17 17 17 17 18 18 18 18 19 19 19 19 19 19 19 19 19 18 18 19 19 19 19 19 21 21 20 19 19 19 20 20 20 20 21 21 20 21 22 22 23 24 24 24 24 23 22 22 20 20 21 21 22 22 21 21 20 19 18 18 19 20 19 18 18 19 19 18 17 17 18 18 19 19 18 19 19 20 20 18 17
15 15 16 16 16 17 17 17 17 17 18 18 18 19 19 19 19 18 18 18 19 19 19 18 18 18 18 19 19 19 19 21 20 19 19 19 20 20 20 21 21 21 21 20 21 22 23 24 24 23 23 23 23 22 21 20 20 20 19 19 20 20 21 19 18 17 16 18 19 19 18 18 19 18 18 17 17 19 20 20 20 20 20 20 20 21 19 18
16 16 16 16 17 17 17 17 18 18 18 18 18 19 19 19 19 18 18 18 19 19 19 18 18 18 19 19 19 20 20 20 19 19 19 19 20 20 20 20 21 21 20 20 22 23 23 24 24 23 23 22 22 21 20 19 19 20 19 18 18 19 19 18 17 16 16 18 19 19 18 19 18 17 18 17 17 19 20 20 20 20 20 20 20 21 20 18
16 16 17 17 17 17 17 18 18 18 18 19 19 19 19 19 19 18 18 18 19 19 19 19 19 19 19 20 20 21 21 20 19 18 18 19 20 20 20 20 21 20 20 21 23 24 23 24 23 23 23 22 21 20 20 20 20 20 20 18 18 17 17 17 16 15 16 18 18 18 18 18 17 17 18 18 18 19 19 20 19 19 19 19 19 19 19 19
17 17 17 17 18 18 18 18 18 18 19 19 19 19 19 19 19 18 18 19 19 19 19 19 19 19 19 19 20 22 20 19 18 17 18 20 20 20 20 20 20 20 21 22 23 23 23 23 23 22 22 21 20 19 19 20 20 19 19 18 17 17 17 16 16 16 16 17 17 17 17 17 18 18 18 17 18 18 19 19 19 19 18 17 17 18 19 19
18 18 18 18 18 18 18 18 19 19 19 19 20 20 19 19 19 19 18 19 19 19 20 20 20 20 20 19 21 22 19 17 17 17 18 19 20 20 20 20 20 21 21 21 22 23 23 23 23 22 22 20 20 19 18 19 20 18 18 18 18 17 17 16 16 16 16 17 17 16 17 18 19 18 17 18 19 19 20 20 20 19 18 17 17 17 18 18
18 18 18 18 18 19 19 19 19 19 19 20 20 20 20 19 19 19 18 19 19 20 20 20 20 20 20 21 22 21 18 17 17 17 18 19 19 19 19 20 20 21 22 22 22 22 23 23 22 22 22 20 19 18 17 18 18 17 17 17 17 17 17 17 17 17 17 17 17 16 17 18 19 16 17 20 20 20 20 20 20 20 19 18 18 18 18 18
18 18 19 19 19 19 19 19 19 20 20 20 20 20 20 19 19 20 19 19 20 20 20 20 20 21 21 22 22 20 17 17 17 17 18 18 19 19 20 20 20 21 22 21 21 21 22 22 22 22 21 20 19 18 17 17 17 18 17 17 17 17 17 17 17 17 17 17 17 16 16 18 18 16 17 20 21 20 20 20 20 19 19 19 19 19 19 19
19 19 19 19 19 19 19 19 19 20 20 20 20 20 20 20 19 20 20 20 20 20 20 20 20 21 22 21 20 18 18 17 17 17 18 18 19 19 19 19 19 21 22 22 20 19 19 20 21 21 20 20 19 18 17 16 18 18 18 18 17 17 18 17 18 17 17 17 17 16 17 18 19 17 18 20 21 20 19 19 20 19 19 19 20 20 19 20
19 19 19 19 19 19 19 19 20 20 20 20 20 20 20 20 20 20 20 20 20 20 20 20 20 20 21 20 18 18 18 17 18 18 18 19 19 19 19 19 19 20 20 21 19 18 18 19 20 19 19 19 18 17 17 17 18 18 18 19 18 18 19 19 18 17 17 17 17 16 18 21 22 20 21 22 21 20 19 19 20 20 20 20 20 20 20 20
19 19 19 19 19 19 19 20 20 20 21 20 20 20 20 20 20 20 20 20 20 20 20 20 20 21 21 19 18 18 18 18 18 18 18 19 20 20 19 19 19 19 19 19 18 18 18 19 20 19 18 19 17 17 17 18 18 18 19 19 20 20 20 19 18 18 18 17 17 17 17 20 23 23 22 22 21 20 19 20 21 21 21 21 21 20 20 20
19 19 19 19 19 20 20 20 21 21 21 20 20 20 20 20 20 20 20 20 20 20 20 20 20 21 21 19 19 19 18 19 19 19 18 18 20 21 20 20 19 19 19 19 18 19 19 19 20 19 18 18 17 18 19 19 19 20 19 20 21 21 20 19 18 18 18 17 17 17 18 20 22 23 22 21 20 20 20 21 21 22 22 21 21 21 21 21
20 19 19 20 20 20 20 20 21 21 21 20 20 20 20 20 20 20 20 20 20 20 21 20 21 22 21 19 19 19 19 20 19 18 18 18 19 20 20 20 20 20 19 19 19 19 20 20 19 19 18 18 19 20 21 20 20 21 20 20 21 20 21 20 17 17 17 17 17 17 18 19 21 23 22 20 20 19 19 20 21 22 22 22 22 21 21 21
20 20 20 20 20 20 20 20 21 21 20 20 20 20 20 20 20 20 20 20 20 21 21 21 21 22 21 19 20 20 20 19 19 18 18 18 18 19 20 21 21 21 20 20 20 20 21 20 18 19 20 21 21 21 21 20 21 21 21 21 21 20 20 20 18 16 16 16 17 17 17 18 20 21 22 21 20 19 19 20 21 22 22 22 22 22 21 21
20 20 20 20 20 20 20 20 20 20 20 20 20 20 20 20 20 20 20 20 20 21 21 20 20 21 20 19 20 20 19 19 18 18 19 19 19 19 19 21 21 21 21 21 21 21 21 21 20 21 22 21 20 20 20 19 19 19 19 20 20 20 20 21 20 16 16 16 16 17 18 18 20 21 21 22 22 21 21 21 21 22 22 22 22 22 22 21
20 20 20 20 20 20 20 20 20 20 20 20 20 21 20 21 21 20 20 20 20 20 20 19 20 20 20 19 19 20 19 18 18 19 19 19 19 19 19 21 21 21 21 21 22 21 21 21 22 22 21 19 18 17 18 17 17 17 17 18 18 19 20 21 20 16 15 16 16 17 18 19 20 21 22 23 23 23 22 22 21 21 22 22 22 22 22 21
20 20 20 20 20 20 20 20 20 20 20 20 20 21 21 22 21 20 19 18 18 18 18 18 19 20 19 19 19 19 19 19 19 20 20 18 18 19 21 21 21 21 21 20 21 19 19 21 20 19 18 16 16 15 15 15 16 16 17 17 18 19 19 21 20 15 14 16 17 19 19 19 20 21 22 22 23 23 23 22 21 21 22 22 22 22 22 22
20 20 20 20 20 20 20 20 20 21 21 21 21 21 22 21 20 19 18 18 17 18 19 18 19 19 18 18 18 18 18 20 21 21 20 19 19 19 21 22 21 22 20 18 19 19 20 21 18 16 15 14 14 14 14 15 15 16 17 17 19 19 19 21 19 15 14 15 17 19 19 19 20 21 21 22 22 22 22 23 21 21 22 22 22 22 22 22
20 20 20 20 20 20 20 21 21 21 21 21 21 22 21 19 19 19 19 19 18 18 19 19 20 20 18 18 18 17 18 20 21 21 19 19 21 20 21 22 22 22 20 19 20 21 21 20 16 15 14 13 13 13 14 15 15 16 17 18 19 20 19 20 17 15 15 15 17 19 17 18 20 20 21 22 22 23 23 23 22 22 23 22 22 22 22 22
20 20 20 20 20 20 20 20 20 21 21 21 21 21 19 19 19 19 19 21 19 18 19 19 20 20 19 20 18 18 19 19 19 20 18 18 21 19 19 21 21 21 21 21 22 22 21 19 15 14 13 13 15 14 14 15 16 17 18 19 20 20 19 18 17 15 16 16 16 16 15 16 19 20 23 23 22 22 22 21 21 21 21 22 22 22 22 22
20 20 20 20 20 21 20 20 20 20 20 20 21 20 19 19 19 19 20 21 20 19 18 18 18 19 19 18 17 18 20 18 18 19 18 18 19 19 19 19 20 21 20 18 20 21 19 16 14 13 12 14 16 16 16 17 18 19 19 19 19 19 18 18 18 17 17 17 14 15 16 18 21 22 24 23 20 20 20 19 19 19 19 20 20 21 21 21
20 21 20 20 21 21 20 20 21 20 20 20 20 19 19 19 19 19 20 21 21 20 18 17 18 19 18 17 18 17 18 18 18 18 17 16 17 18 18 16 18 21 19 17 19 21 18 13 12 13 14 15 16 17 17 17 19 21 18 16 16 17 16 16 17 16 18 18 15 15 18 20 22 23 24 24 22 21 20 19 20 21 20 19 20 21 21 21
20 21 20 20 21 20 20 21 21 20 20 20 19 19 19 19 19 18 20 22 21 20 20 20 20 19 18 18 18 16 18 19 18 17 17 16 15 16 18 18 18 18 17 16 18 18 16 12 12 14 15 16 16 17 17 16 18 20 16 13 14 15 15 15 16 15 17 19 17 16 17 19 21 22 23 23 23 23 21 20 22 22 22 22 21 22 22 22
21 21 20 20 20 20 21 21 20 21 20 19 19 19 18 18 18 18 20 22 21 20 20 21 21 20 19 18 18 18 19 19 18 17 16 16 15 16 18 19 18 17 15 15 18 18 15 14 14 15 15 16 17 17 17 15 17 18 14 11 13 14 14 15 15 15 16 18 18 17 17 17 19 21 23 21 21 23 23 23 23 23 23 23 22 22 22 22
21 20 20 20 20 21 21 21 21 20 20 19 19 19 18 18 17 18 20 21 20 21 20 20 20 19 19 18 18 19 18 17 18 19 17 16 16 17 19 18 17 17 14 15 20 18 15 16 16 15 16 18 18 16 15 14 16 16 12 11 13 13 14 14 14 15 16 16 18 18 17 17 19 21 22 20 21 23 23 23 23 23 23 22 22 22 21 21
20 20 19 19 20 20 21 21 21 20 19 20 19 18 18 17 18 20 21 20 20 21 20 20 20 19 18 18 19 18 17 17 18 18 17 17 17 17 18 16 15 16 14 15 19 18 14 14 14 15 17 17 16 15 14 14 15 14 11 11 12 11 12 13 14 16 16 16 18 19 18 18 19 21 22 21 21 22 22 23 23 23 22 22 22 21 21 21
20 20 19 19 20 20 21 21 20 19 19 19 19 18 17 18 19 21 21 20 20 20 19 19 19 17 17 19 20 18 18 17 17 17 18 18 18 18 15 13 15 16 16 16 17 16 13 11 12 13 15 15 14 14 13 13 14 13 12 14 14 14 13 14 15 16 16 17 18 18 17 18 18 20 22 22 21 21 21 21 22 22 22 22 22 21 21 21
20 20 19 20 20 20 21 20 19 19 19 18 18 18 18 20 21 21 20 19 19 19 18 18 17 16 16 17 19 18 17 17 16 17 19 19 19 19 17 16 16 18 19 19 18 17 13 13 14 13 12 13 13 14 13 10 11 12 14 17 18 18 17 16 17 16 17 19 18 16 17 17 17 19 22 22 20 20 20 20 20 21 22 22 22 22 21 20
20 20 20 20 20 21 21 19 18 18 18 18 18 19 21 21 21 20 19 19 19 18 17 16 16 16 15 16 17 16 16 17 17 16 16 18 18 16 16 17 16 18 20 20 20 19 17 16 15 12 11 12 14 16 15 12 12 14 17 18 18 19 19 18 18 18 19 19 17 16 16 16 18 19 21 22 21 21 21 20 20 21 21 22 21 20 20 18
19 20 20 20 20 20 19 18 18 18 18 17 18 21 22 21 20 18 18 19 18 15 14 14 15 16 16 18 18 15 15 17 17 16 15 17 18 16 14 14 14 16 19 19 19 20 19 16 15 14 13 11 13 17 18 16 16 17 17 17 17 17 17 17 18 19 19 19 17 16 15 16 18 20 21 21 22 22 21 20 20 20 19 19 19 19 18 18
19 20 20 20 20 19 17 17 18 18 18 18 20 22 21 20 19 16 17 18 16 14 14 14 14 16 17 18 17 15 16 17 16 17 18 19 20 18 16 15 14 15 18 19 18 18 18 18 17 16 15 12 13 15 14 15 16 16 16 16 16 16 16 16 17 18 18 18 18 15 15 17 18 20 22 22 22 22 21 20 19 18 18 17 18 18 19 19
19 20 20 19 18 18 17 17 18 19 20 20 22 22 20 19 19 17 17 16 14 15 15 14 14 18 20 18 15 13 15 17 17 17 19 19 19 18 17 16 14 14 16 18 18 16 18 20 16 14 13 13 13 12 11 14 16 16 16 16 16 16 15 16 17 17 16 15 16 16 16 19 20 21 23 22 22 22 21 20 20 19 19 19 19 20 19 19
20 20 19 18 17 17 18 18 19 20 20 22 22 20 17 16 16 16 15 13 13 13 15 16 16 19 21 19 18 15 13 15 17 18 19 18 17 16 16 14 12 12 14 16 17 16 17 19 17 14 12 12 12 12 11 13 16 16 16 16 15 14 14 15 16 16 15 14 16 18 18 19 20 20 22 22 22 22 21 21 21 20 20 20 19 20 19 19
20 19 18 17 17 18 18 19 20 20 21 22 20 17 15 14 13 13 11 11 11 10 14 19 17 17 19 20 19 17 15 16 17 18 19 18 16 15 15 14 11 11 12 13 15 16 15 17 18 17 15 12 10 10 11 11 13 16 16 15 14 14 14 15 15 15 15 15 17 18 17 17 18 18 21 21 21 21 21 21 21 20 20 19 19 19 19 19
20 19 18 17 17 18 19 20 20 21 22 20 17 15 14 13 11 10 9 9 9 10 15 19 17 15 18 19 18 16 15 17 18 19 19 18 17 15 14 14 11 10 10 10 14 15 13 15 17 15 15 13 10 11 13 12 11 14 14 14 14 14 14 16 15 14 14 14 15 16 17 17 17 18 19 19 19 20 20 20 20 20 19 19 19 19 18 18
21 21 19 17 17 18 19 20 20 22 22 19 17 15 14 12 10 8 7 7 9 12 16 17 16 16 17 17 17 15 15 16 17 18 18 18 17 14 13 14 12 11 10 10 13 15 14 16 16 15 15 15 13 14 17 15 12 11 13 14 14 14 15 15 15 14 14 14 14 15 16 16 18 19 19 19 19 20 19 20 20 19 19 19 19 18 18 18
20 22 20 18 18 18 19 19 20 20 19 17 16 15 12 12 10 7 6 6 9 13 15 16 16 16 16 16 15 15 15 16 16 18 18 17 17 15 12 11 12 11 10 10 11 13 14 15 16 16 16 16 17 17 17 17 15 14 15 16 15 15 15 15 14 15 14 14 14 14 14 16 18 19 19 19 20 20 19 20 19 19 19 19 18 17 17 17
20 22 20 18 19 19 19 19 17 16 16 16 15 13 11 11 10 9 5 4 8 11 11 14 15 15 16 16 16 14 15 16 16 17 18 16 17 16 10 6 8 9 10 11 12 12 14 15 15 16 16 17 18 16 13 14 15 15 16 17 16 16 15 13 14 14 13 13 14 13 13 15 18 19 19 19 19 20 20 20 19 19 19 18 18 17 17 17
21 21 19 19 19 19 19 18 14 15 16 14 12 11 10 9 10 11 8 6 8 10 11 12 14 14 14 15 15 14 14 16 17 17 17 16 16 16 8 2 4 6 9 12 12 10 11 13 14 14 16 18 16 11 9 10 12 13 14 15 16 15 14 13 13 14 13 13 13 13 12 14 17 19 19 20 20 20 20 20 19 19 18 18 17 17 17 16
21 20 18 18 19 20 20 18 15 14 13 10 9 9 8 9 11 12 11 10 10 12 13 13 12 13 13 13 14 14 14 15 16 17 17 16 14 10 5 2 3 6 9 11 11 10 10 13 14 14 17 18 14 10 9 9 10 13 14 14 14 14 14 13 12 12 12 12 13 13 12 14 18 19 20 20 20 20 20 20 19 18 17 17 17 16 16 16
20 20 19 18 19 20 20 19 17 14 12 11 11 10 9 9 10 11 11 11 10 11 13 14 12 12 12 11 12 14 14 14 16 15 15 16 12 5 2 2 4 7 9 8 8 9 11 14 15 14 16 17 15 14 13 11 12 15 17 16 14 12 12 11 11 11 11 12 13 12 12 14 18 19 19 19 19 19 19 19 18 17 17 17 16 16 16 15
21 21 21 19 19 19 17 16 17 15 13 13 13 13 12 10 8 7 9 10 9 9 12 13 11 10 11 11 12 13 13 14 16 14 12 14 12 4 1 2 2 5 6 3 3 6 10 14 14 13 14 15 15 16 16 15 15 16 16 15 13 11 11 11 12 12 11 13 14 13 13 15 17 18 18 18 18 19 19 18 18 17 17 16 16 15 15 15
21 21 20 20 19 18 15 14 16 16 15 15 15 14 14 14 10 7 8 10 9 8 11 12 11 10 12 13 13 15 14 13 14 13 13 14 14 8 2 1 2 3 3 2 1 5 10 13 13 13 14 14 15 15 16 16 15 14 14 14 13 11 10 10 11 11 12 13 13 14 14 15 16 17 17 17 18 18 18 17 17 17 16 16 16 15 15 14
20 17 16 18 19 18 17 15 15 16 15 15 15 13 13 15 13 10 10 10 9 8 11 12 12 13 14 14 14 15 15 14 13 12 12 12 13 10 4 2 3 2 2 3 2 5 11 12 12 13 13 13 14 15 15 15 13 13 14 13 13 12 10 9 10 11 13 12 12 14 15 14 15 16 16 17 17 17 17 17 16 16 16 16 15 14 14 14
18 15 14 15 16 17 17 15 14 15 15 14 13 12 14 14 14 13 12 11 10 9 12 14 13 13 13 12 13 14 15 15 14 13 12 11 11 11 8 6 5 3 3 5 5 6 10 12 11 10 10 12 12 13 13 13 13 14 14 13 13 13 11 10 10 11 12 11 12 14 14 14 14 15 16 16 16 17 17 16 16 16 16 15 14 14 14 14
17 16 14 13 14 13 12 11 13 15 15 15 14 13 13 14 14 12 11 12 13 12 13 15 15 13 12 11 12 14 14 14 13 12 11 10 9 11 11 10 7 5 6 8 7 6 9 12 11 9 9 11 11 12 13 13 13 14 14 13 13 13 13 13 12 12 12 11 12 13 13 13 14 15 15 16 16 17 17 17 16 16 16 15 14 13 13 13
17 17 15 14 14 11 9 10 14 17 16 16 15 13 12 14 14 12 10 11 14 15 13 14 14 13 12 11 11 13 13 12 12 11 10 9 10 10 11 11 10 8 8 9 8 7 9 11 10 9 10 12 13 14 14 14 14 14 13 14 14 14 15 14 14 13 12 12 12 12 12 13 14 15 15 16 17 17 17 16 16 15 15 15 14 13 13 13
15 15 16 16 14 12 12 13 15 17 17 15 15 13 13 14 13 11 11 10 11 13 12 11 12 12 11 11 12 13 10 8 9 9 7 8 9 9 10 10 9 8 9 8 7 7 9 11 11 10 11 12 14 15 15 14 14 13 13 14 14 15 15 15 15 14 13 13 13 13 13 13 15 17 17 17 17 16 16 16 15 15 15 14 14 13 13 13
14 15 16 18 15 13 14 15 16 17 15 13 12 12 12 13 10 10 13 11 8 9 8 8 9 11 12 14 12 9 6 4 5 5 4 4 5 5 7 7 7 7 8 8 7 7 7 9 11 11 10 12 14 14 14 13 14 15 15 14 15 15 15 15 15 15 15 14 14 13 14 15 17 17 16 16 16 16 16 15 15 14 14 14 14 13 12 12
Height
806 806 806 806 806 806 806 806 806 806 806 806 805 805 805 804 804 803 802 802 802 801 801 801 800 800 800 800 800 800 799 798 798 798 799 802 802 800 799 798 797 796 796 795 795 793 791 790 789 788 786 786 788 789 792 792 793 792 788 788 785 783 786 788 788 790 791 793 801 804 805 808 809 810 811 813 814 813 812 810 809 807 807 807 808 809 811 812
806 806 806 806 806 806 806 806 806 806 806 806 805 805 804 804 803 802 802 802 801 801 800 800 800 800 799 799 800 800 799 798 798 798 801 802 801 799 798 798 797 796 796 796 795 793 791 789 789 788 786 787 789 790 792 792 792 792 788 785 784 785 788 789 786 790 793 793 799 803 804 806 805 806 809 812 811 811 812 809 808 808 805 805 806 808 810 811
806 806 806 806 806 806 806 806 806 806 806 805 805 805 804 803 803 802 802 801 801 800 800 799 799 798 798 799 799 799 800 798 797 800 802 801 800 799 798 798 797 797 796 796 795 794 792 790 789 788 787 788 790 791 792 793 793 793 791 786 786 791 793 793 792 795 798 795 798 803 804 805 804 803 807 811 809 807 808 806 806 806 803 801 802 804 807 808
806 807 807 807 807 806 807 806 806 806 805 805 805 804 804 803 802 802 801 801 800 800 800 799 797 796 796 797 798 800 799 798 800 803 802 801 800 799 799 798 798 797 797 796 795 794 793 791 790 789 789 791 792 792 793 796 795 793 794 792 792 793 793 797 798 800 802 799 798 801 806 807 804 804 806 809 809 805 801 799 800 800 798 798 798 799 803 805
807 807 807 807 807 807 806 806 806 806 805 805 804 804 803 803 802 801 801 800 800 800 800 798 797 795 796 797 798 800 800 802 805 804 802 801 800 799 799 798 798 797 797 797 795 794 793 791 790 791 791 792 792 793 796 798 797 797 800 801 798 795 795 800 801 804 806 803 800 802 807 806 804 807 806 808 807 800 794 793 794 794 794 794 794 794 798 801
807 807 807 807 807 807 807 806 806 806 805 805 804 804 803 803 802 801 801 800 800 800 800 799 798 796 796 798 799 799 800 806 807 804 803 801 800 800 799 799 798 797 797 796 795 794 793 791 791 793 793 794 795 796 799 799 798 798 802 803 802 800 801 803 804 808 808 805 803 804 804 803 806 808 804 805 802 794 790 791 792 792 792 792 792 792 793 797
807 807 807 807 807 807 807 806 806 806 805 805 804 804 803 803 802 802 801 800 801 800 800 800 799 799 798 799 800 799 800 806 807 804 803 801 801 800 799 799 798 797 797 796 794 792 792 791 792 794 795 797 798 800 801 799 797 798 802 805 804 805 805 806 808 810 810 807 804 804 805 805 808 806 801 800 796 792 791 790 792 792 792 793 793 792 792 793
806 807 807 807 807 807 807 806 806 805 805 805 804 804 804 803 803 802 801 801 801 801 801 800 801 800 800 800 799 800 804 807 807 805 803 802 801 800 799 799 798 798 797 796 794 792 792 793 793 794 797 800 800 802 803 800 799 801 805 807 806 807 807 809 810 810 811 808 807 807 808 806 803 802 800 796 792 790 790 789 790 791 791 792 792 791 791 791
806 807 807 807 807 807 807 806 806 805 805 805 804 804 804 804 803 803 802 801 801 801 801 801 801 801 801 801 797 801 810 810 808 806 804 802 801 800 799 799 798 798 797 796 795 794 793 793 794 794 797 802 801 804 806 803 804 805 808 808 808 809 809 810 810 810 810 808 809 810 808 804 800 802 797 788 786 785 785 786 786 787 788 789 789 789 789 788
806 807 807 807 807 807 807 806 806 806 805 805 805 805 805 804 804 803 802 800 800 801 801 801 802 801 801 799 797 806 813 810 809 808 804 803 802 801 800 799 799 798 797 796 795 794 793 793 794 793 795 801 803 806 808 807 808 808 809 809 810 811 811 811 809 810 810 808 810 810 807 800 798 806 795 778 778 780 781 782 782 783 784 784 784 784 785 785
807 807 807 807 807 807 807 807 806 806 806 806 805 805 805 805 804 804 801 800 801 801 802 802 802 802 801 798 800 810 813 810 810 808 806 805 802 802 801 800 799 799 797 796 797 795 794 794 794 794 797 801 805 809 811 811 811 809 811 812 813 812 811 811 810 810 810 809 809 809 808 800 799 804 789 775 777 778 779 780 780 782 781 781 781 780 781 781
806 806 807 807 807 807 807 807 807 806 806 806 806 806 805 806 805 805 803 802 802 802 803 803 802 802 801 801 807 813 812 811 810 808 807 806 804 803 801 801 800 799 798 797 797 797 796 797 796 798 801 802 807 811 813 814 810 810 812 812 814 813 811 809 808 809 809 807 808 810 806 794 791 792 777 771 775 776 779 779 778 779 778 778 777 776 777 776
806 806 807 807 807 807 807 807 807 807 807 806 806 806 806 806 806 805 804 803 803 804 804 803 803 803 801 806 812 813 812 812 811 809 809 807 806 805 803 802 800 799 799 797 798 799 798 798 797 800 802 804 810 813 813 813 812 813 811 809 811 811 807 804 804 807 808 807 806 811 804 781 773 775 768 768 772 775 779 778 776 775 773 774 773 773 773 772
806 806 807 807 807 807 807 807 807 807 807 807 807 806 806 806 806 806 805 805 804 804 803 803 804 803 803 811 814 813 812 812 811 810 809 808 807 806 805 804 802 801 800 799 800 800 800 800 798 802 805 805 811 814 813 813 812 811 811 809 806 804 802 801 804 806 807 806 804 811 807 783 768 765 764 767 770 775 776 773 772 770 769 769 770 770 769 768
806 806 806 806 806 807 807 807 807 807 807 807 807 806 806 805 806 806 805 806 805 805 804 804 804 803 806 812 814 812 812 811 811 811 809 808 808 806 806 805 804 803 802 802 802 802 802 801 800 803 808 809 811 813 810 810 809 807 810 807 800 801 801 801 804 804 804 805 804 809 805 785 770 764 764 769 771 773 774 770 768 766 766 766 766 767 766 765
805 806 806 806 806 807 807 807 807 807 807 808 807 807 807 806 807 807 807 806 805 805 805 805 805 803 808 814 813 812 812 811 811 812 810 809 808 807 806 806 805 804 804 804 803 803 802 801 804 806 808 810 809 808 807 807 805 802 806 804 800 803 801 798 804 805 804 805 804 806 802 786 773 766 766 769 770 772 772 768 766 764 763 763 763 763 762 762
805 805 806 806 806 807 807 807 807 808 808 808 808 808 808 808 808 808 809 807 806 806 805 807 806 804 809 813 812 812 813 813 812 811 810 810 808 808 806 805 805 804 804 804 803 803 802 803 807 806 804 804 804 804 806 807 803 799 802 802 800 805 804 799 803 806 806 808 804 802 800 789 776 768 765 766 766 768 768 765 763 761 760 760 759 759 759 759
805 805 806 806 806 807 807 807 808 808 809 809 810 810 809 810 810 810 811 809 807 806 806 807 806 808 814 814 814 815 814 813 813 811 810 810 809 808 807 805 805 804 804 804 803 802 801 802 803 802 802 804 808 810 812 815 815 812 812 809 806 806 805 799 799 805 806 806 804 799 795 784 772 767 763 760 759 760 761 760 758 757 756 756 756 756 756 756
805 805 806 806 807 807 808 808 808 809 810 811 811 811 811 811 810 811 811 810 810 811 814 814 811 814 819 817 816 816 815 814 813 811 811 810 809 808 807 806 805 804 804 804 803 803 803 802 802 804 810 817 822 823 823 824 825 823 821 820 818 811 804 795 794 804 807 805 801 796 790 779 769 764 759 754 753 753 752 753 754 753 753 753 753 753 753 753
805 806 806 807 807 808 809 809 809 811 811 812 812 811 812 811 813 817 816 814 817 820 821 820 816 817 818 818 817 816 815 814 813 812 812 810 810 809 807 805 805 804 807 809 808 806 805 807 813 818 823 827 829 830 831 829 826 825 823 821 817 811 804 792 792 804 808 805 795 785 783 774 766 761 754 751 749 749 748 747 750 750 749 750 750 750 750 750
805 806 807 807 808 808 809 810 810 811 811 812 811 811 812 812 815 821 821 820 823 822 821 821 819 819 820 820 819 818 817 814 812 812 812 811 809 809 807 804 805 806 811 815 811 807 805 812 823 829 830 832 832 832 832 829 827 825 822 819 811 806 801 790 794 805 807 807 794 781 781 771 763 759 750 747 747 746 743 743 745 745 744 745 746 747 747 745
805 806 806 807 809 809 810 811 811 812 811 812 812 811 812 813 814 817 817 822 826 823 822 822 820 820 821 821 820 819 818 816 813 811 812 810 807 809 808 804 806 809 810 811 808 806 807 817 828 831 833 834 833 833 832 829 827 824 818 814 807 802 799 794 799 807 807 808 794 783 786 774 760 755 746 742 742 739 738 738 740 740 740 742 742 743 744 743
805 806 807 808 809 811 811 812 813 813 812 813 813 813 815 816 816 816 815 819 825 825 823 822 821 822 821 820 821 819 818 821 819 814 814 812 809 811 810 808 809 809 809 809 808 806 809 821 830 833 835 834 830 830 831 828 823 819 813 809 805 801 805 804 802 805 803 802 795 792 796 780 758 748 738 736 738 736 737 738 739 740 740 740 740 741 741 742
805 806 808 809 810 812 813 813 815 814 813 813 814 815 816 817 817 817 817 816 821 824 824 823 823 823 823 823 823 820 819 822 821 819 817 816 813 812 814 816 814 811 816 819 813 810 817 829 833 836 838 834 829 826 825 824 814 807 807 809 808 806 810 808 802 802 795 794 801 799 789 769 750 742 733 733 740 739 739 741 741 742 742 742 742 741 741 741
805 806 808 810 811 813 813 815 816 816 815 815 816 817 817 818 817 817 818 818 822 823 823 824 823 822 824 823 823 822 822 822 822 822 821 820 818 816 818 821 818 816 822 824 818 814 823 835 836 836 834 830 830 825 821 824 814 803 808 817 817 814 815 811 806 806 794 789 800 800 788 763 742 740 735 731 736 736 738 742 739 738 739 741 742 741 740 740
805 807 808 810 812 813 814 816 816 817 817 816 819 818 817 818 817 818 818 818 825 828 825 823 823 824 824 823 823 823 823 823 823 823 822 822 822 821 821 821 821 822 826 827 823 821 827 837 838 834 831 829 828 824 821 826 820 808 817 827 824 820 819 814 812 813 801 789 792 797 798 779 752 743 737 733 736 734 735 738 735 733 734 736 738 738 738 738
805 807 809 810 812 814 814 815 816 818 817 818 819 817 818 818 817 819 819 821 831 833 828 824 825 827 826 825 824 823 827 826 823 823 824 823 823 822 821 822 823 826 832 830 823 824 830 834 835 832 831 828 824 822 823 829 825 815 824 832 824 821 819 815 815 815 805 794 789 789 795 790 770 748 737 740 741 735 733 733 731 732 732 733 735 737 737 738
806 808 809 811 813 814 815 815 817 818 817 818 818 817 819 817 818 819 821 835 842 832 830 830 826 827 827 826 825 825 830 829 825 825 824 824 824 821 822 826 828 828 834 832 821 824 831 830 830 831 829 824 822 826 828 831 826 820 828 831 823 823 820 816 818 811 804 802 793 784 789 791 772 747 738 744 743 737 735 733 732 732 732 733 735 736 737 737
807 808 810 812 814 815 816 816 817 818 818 818 818 819 818 817 820 818 820 841 845 831 833 832 826 830 830 827 827 828 831 831 830 828 824 824 824 821 824 829 831 831 834 832 823 824 831 833 833 832 826 823 825 827 830 830 824 823 830 828 824 825 821 817 816 807 804 807 793 780 784 786 770 748 740 743 742 740 738 734 733 732 733 734 734 736 737 736
807 809 812 813 815 816 817 817 818 818 819 818 818 818 818 819 820 821 832 846 844 837 837 834 834 840 837 831 830 831 833 834 834 829 824 824 823 822 828 831 829 829 830 830 826 826 834 838 837 833 828 828 829 826 829 830 826 826 828 819 813 813 813 814 809 805 806 798 785 782 785 788 780 757 740 739 742 742 740 738 736 733 733 733 733 735 735 736
808 811 813 814 816 817 817 818 819 819 819 819 819 818 819 819 817 827 848 851 843 841 841 841 845 846 843 842 838 836 836 835 835 833 827 825 825 824 827 830 829 825 820 822 822 824 832 834 831 833 833 832 831 825 828 834 833 830 821 810 803 796 798 803 800 804 805 788 783 789 788 790 788 764 741 737 742 742 741 743 741 736 734 733 733 734 735 738
810 812 814 815 817 817 817 819 819 820 820 819 819 818 819 824 828 841 853 848 847 853 852 854 853 848 850 849 844 844 843 838 837 839 838 834 833 838 840 840 840 833 824 823 821 817 822 826 827 833 835 834 831 821 820 827 829 824 814 809 809 799 797 801 796 794 790 781 786 794 792 791 780 759 745 741 738 737 737 739 740 738 735 734 736 738 739 741
812 813 814 816 817 818 819 820 820 820 820 820 820 818 820 830 847 861 857 849 857 864 862 862 856 850 851 844 844 850 847 842 840 841 844 839 835 845 851 850 850 845 836 830 827 821 820 824 826 829 832 836 834 822 818 820 818 817 815 817 819 817 818 816 802 793 787 782 787 795 798 791 771 752 746 743 738 735 736 738 739 739 739 740 741 742 742 741
814 814 816 818 818 819 820 820 821 821 821 821 819 820 829 842 859 868 861 856 863 865 862 864 859 852 849 845 851 855 848 845 845 841 840 834 832 840 846 848 851 850 841 833 834 836 831 826 824 824 828 834 834 830 831 829 821 820 822 824 824 825 829 825 811 804 800 791 788 798 800 787 769 753 742 740 738 735 737 739 741 741 742 744 742 740 740 738
815 816 817 819 820 821 822 822 822 821 820 821 821 828 842 855 861 862 863 864 866 864 861 864 860 848 842 847 856 861 855 848 845 842 838 837 841 845 848 852 855 854 848 840 839 841 832 823 825 831 833 834 833 836 841 833 824 823 823 823 825 826 828 825 814 808 811 809 799 796 788 770 758 746 735 738 737 734 737 738 739 741 739 740 740 736 736 737
816 817 819 821 823 823 823 823 822 822 821 820 827 844 859 867 867 865 872 875 873 873 865 859 858 849 842 846 850 857 862 855 848 844 841 845 851 852 854 858 862 862 858 851 844 843 838 825 822 830 834 835 835 837 839 834 827 824 822 822 826 830 829 825 817 808 813 817 799 783 776 765 758 749 737 738 738 735 738 737 738 740 738 739 739 736 736 736
817 819 822 824 825 824 824 823 822 822 820 821 838 860 871 876 879 879 883 882 881 883 869 854 860 862 854 850 849 855 860 854 849 844 841 847 852 855 857 860 867 868 866 863 852 849 853 836 819 823 829 833 840 840 836 838 835 824 823 827 826 827 826 823 822 816 814 812 795 784 784 779 773 763 746 742 744 741 740 738 738 740 741 741 739 737 736 735
818 820 823 826 827 826 824 823 823 822 821 831 853 870 874 879 886 888 890 889 886 882 866 857 865 870 863 856 856 862 861 853 848 844 844 848 851 858 859 860 868 870 870 872 859 851 858 844 825 827 830 830 838 839 831 835 839 831 829 831 828 829 827 820 821 822 821 817 804 793 791 785 776 766 755 751 749 744 741 740 738 740 742 740 738 737 736 735
819 820 826 830 828 827 825 824 824 821 824 841 859 870 876 883 890 893 894 893 888 878 868 866 869 868 866 865 864 867 866 862 856 851 851 853 853 859 862 862 867 869 871 872 862 854 855 848 835 830 827 827 830 827 820 823 834 837 832 829 828 830 827 822 821 823 822 819 810 801 797 787 770 758 755 754 748 745 744 740 739 741 740 738 737 737 737 736
819 821 829 832 829 828 827 825 825 828 840 855 865 872 881 885 890 895 898 896 888 879 873 871 870 868 868 869 869 870 869 866 862 857 854 856 855 858 866 870 867 869 873 872 867 861 853 850 842 828 822 823 819 817 816 817 823 828 824 822 825 822 819 821 819 816 818 816 810 808 805 788 765 751 751 751 747 745 743 740 739 739 737 736 737 738 737 736
819 824 833 833 830 830 827 828 839 848 856 864 870 877 886 888 888 892 897 899 891 884 882 877 873 873 872 870 870 873 871 865 863 860 856 858 857 857 873 884 878 875 874 867 866 865 856 852 847 835 828 821 814 820 828 828 826 824 820 817 818 817 821 827 822 814 819 819 811 813 811 789 762 751 751 750 747 743 740 739 737 735 735 736 737 738 737 736
822 831 838 834 831 831 827 839 858 861 863 874 881 886 890 891 890 888 893 897 891 885 884 882 878 877 877 875 872 875 874 867 862 860 859 861 859 861 879 894 891 886 878 866 866 872 870 861 852 845 832 818 821 835 841 839 835 830 826 819 816 820 824 828 825 818 819 818 813 815 812 786 758 751 751 747 744 741 739 738 735 734 736 737 737 737 735 734
829 836 839 834 832 830 831 849 866 868 876 888 891 892 894 892 888 886 888 890 888 884 880 881 883 882 881 882 879 875 875 871 864 861 861 861 865 875 888 895 892 886 879 870 868 875 874 860 851 845 825 812 824 838 842 845 841 831 824 819 820 823 823 826 829 828 828 822 813 814 807 780 754 748 748 743 740 740 738 737 736 737 739 738 737 736 733 732
833 837 838 836 832 829 836 854 866 873 883 888 887 890 894 893 891 889 888 888 889 888 882 881 885 885 883 886 883 876 876 873 866 865 867 864 871 888 896 895 893 885 880 881 881 880 871 853 848 849 835 823 824 827 831 838 834 822 813 814 820 825 830 835 834 835 834 821 809 811 804 775 753 748 746 743 741 739 738 737 736 738 739 738 736 734 733 732
833 837 841 841 835 836 848 860 864 872 882 882 883 887 887 892 899 899 895 893 895 894 887 884 888 889 886 887 884 879 879 876 869 870 874 869 873 891 898 897 897 891 889 896 897 890 874 857 854 857 852 846 838 832 829 827 824 819 813 813 820 827 834 833 828 830 828 812 801 802 792 768 753 751 749 745 742 739 738 738 736 737 737 736 735 734 732 731
835 843 849 848 845 848 860 867 865 870 878 877 880 886 885 887 895 901 899 895 895 897 891 887 890 889 885 882 879 875 875 877 877 876 876 870 869 884 897 899 898 896 897 900 900 893 875 861 859 857 854 851 843 836 831 828 829 827 819 814 817 826 833 833 830 827 818 808 798 788 779 769 759 754 750 745 743 740 738 738 737 735 734 733 733 732 731 729
841 857 863 858 856 858 864 870 870 872 875 876 882 891 890 886 889 894 895 893 895 897 891 887 888 886 882 881 880 875 872 874 879 879 879 877 873 880 894 898 896 897 898 897 897 890 873 861 859 857 854 849 842 835 832 832 834 829 822 817 812 818 830 835 831 818 808 810 800 777 770 771 762 754 751 746 743 740 738 738 736 732 732 731 731 730 729 727
848 864 869 865 867 872 871 875 878 877 877 880 888 894 890 887 890 891 892 892 894 895 889 884 884 885 887 888 885 879 875 872 875 877 879 883 881 879 883 889 893 896 894 891 891 889 876 863 862 864 860 852 846 840 835 833 830 823 819 816 810 810 818 824 821 810 808 812 797 774 771 770 760 755 750 744 742 739 736 736 733 730 730 730 729 729 727 725
853 862 870 869 873 882 886 886 883 880 880 882 887 894 892 890 892 894 897 893 888 889 888 882 882 886 889 892 889 883 881 879 880 883 885 888 888 882 877 879 885 890 888 884 886 889 878 862 863 870 863 849 842 838 832 829 825 818 813 811 808 805 803 804 805 802 802 801 787 777 777 768 757 753 748 741 738 735 733 733 731 729 729 728 728 728 726 724
850 856 865 869 875 886 891 890 882 877 880 881 885 894 897 892 892 896 899 896 887 886 889 887 886 888 890 894 891 885 886 889 888 888 892 892 888 884 879 877 879 883 883 881 885 888 878 862 863 869 859 840 828 823 821 821 820 815 808 804 802 800 793 790 791 792 794 792 782 778 777 765 752 747 743 737 733 732 732 732 730 729 728 726 726 726 724 723
848 853 857 861 875 888 887 885 881 877 882 885 887 895 895 892 895 897 896 899 897 892 894 895 893 892 892 892 890 887 892 898 895 894 897 895 889 887 884 882 884 885 882 882 886 886 879 867 860 863 858 837 820 816 815 814 813 810 806 801 798 795 788 783 782 784 785 782 776 773 770 758 744 738 736 732 731 731 732 730 728 727 727 725 724 723 722 721
851 855 854 855 873 889 886 882 881 880 888 895 895 898 896 894 901 901 893 897 902 902 903 903 901 896 889 886 888 895 902 905 902 900 901 900 897 895 891 887 889 890 886 885 888 887 886 877 863 862 861 841 822 819 819 814 808 800 796 796 793 789 785 779 774 774 773 772 772 768 758 746 737 735 735 732 730 731 729 728 728 727 725 723 721 721 721 719
Wind_Speed
4 4 4 5 5 4 4 4 4 4 4 3 3 2 3 3 4 5 5 6 6 7 7 6 5 6 4 4 5 3 1 2 6 11 10 10 18 16 10 8 9 8 4 5 4 5 5 5 3 4 4 2 1 1 1 1 2 3 3 5 4 3 2 3 6 3 2 6 10 11 14 12 9 9 6 3 8 11 9 10 11 11 13 15 9 4 5 7
4 5 5 5 4 4 4 3 3 3 3 2 2 3 4 5 5 6 6 7 8 8 7 7 6 7 9 7 6 6 5 5 4 13 9 13 17 10 6 6 7 5 3 5 6 7 6 4 2 5 4 1 0 0 2 1 2 3 3 5 2 2 2 2 1 3 2 3 9 11 12 11 8 8 8 7 11 12 13 12 12 14 14 16 15 11 10 10
5 5 5 4 3 3 3 3 3 2 2 2 3 4 5 6 7 7 8 8 8 6 5 6 8 10 12 10 7 8 7 9 1 11 11 15 12 6 6 6 6 4 3 6 7 7 6 4 3 5 4 1 1 1 2 2 2 1 2 5 1 4 3 4 3 4 4 2 8 11 10 11 7 5 7 8 11 12 14 13 11 16 17 16 17 17 15 14
5 4 4 3 3 3 3 2 1 1 2 3 4 5 6 6 7 7 7 7 4 2 3 5 7 9 9 8 8 8 5 6 2 9 14 14 10 6 6 5 5 3 3 5 5 4 5 4 3 4 4 2 1 1 1 3 2 1 2 3 4 2 2 4 4 5 4 4 5 9 8 10 7 4 6 7 10 11 13 14 14 15 15 15 14 17 18 17
4 3 3 3 3 3 2 1 1 2 3 4 5 5 4 4 4 5 6 3 3 6 8 8 4 0 5 9 10 8 3 3 3 12 16 13 8 5 5 5 6 3 2 4 5 3 4 5 3 2 3 2 1 1 1 4 3 1 1 2 4 1 2 4 4 5 3 4 3 8 8 8 6 6 9 10 11 9 7 8 14 15 13 13 12 13 17 18
3 3 3 3 2 2 1 2 3 4 4 5 4 3 2 3 4 5 5 3 7 7 9 10 10 10 10 9 9 6 2 1 6 15 17 12 7 5 5 5 5 3 3 6 6 4 4 5 4 3 2 1 2 2 2 3 3 2 1 1 2 4 3 3 3 4 1 3 5 6 6 6 6 8 10 14 16 12 6 3 6 10 11 11 10 11 13 16
3 3 3 2 2 1 2 3 4 4 4 4 2 3 3 4 4 5 4 6 8 5 5 6 10 13 13 10 6 2 3 6 12 19 17 11 6 5 4 5 4 2 4 6 6 5 4 5 4 2 2 1 2 2 2 2 2 2 2 3 2 4 3 3 3 2 1 4 4 2 3 6 10 10 8 14 18 17 15 9 6 6 6 8 9 11 13 15
3 3 2 1 2 3 3 3 3 4 4 2 3 4 4 5 6 7 6 6 6 2 2 4 5 5 5 3 3 4 8 8 16 20 15 11 7 4 4 6 4 2 3 4 4 4 4 5 3 2 1 1 1 2 2 1 2 2 2 3 1 2 2 2 1 1 2 3 2 2 6 10 11 9 10 16 17 17 18 16 13 11 9 8 10 13 14 15
3 2 1 2 3 3 3 3 4 4 3 2 5 4 5 5 6 6 4 4 6 3 1 2 3 3 2 4 5 3 7 10 15 17 13 9 8 6 5 5 4 3 4 3 3 4 4 3 1 1 1 3 1 2 3 3 1 3 3 3 2 2 1 2 2 3 3 3 2 6 10 12 9 6 13 19 19 18 17 17 17 15 14 13 12 14 14 15
3 2 2 2 1 2 3 4 4 2 1 5 6 5 4 3 5 6 2 3 7 6 3 1 2 2 2 6 4 4 7 10 11 14 11 7 7 7 4 2 3 4 3 1 2 4 3 0 3 2 3 4 2 2 4 3 2 4 5 3 3 2 2 3 4 4 4 4 4 8 10 12 5 2 11 13 10 11 13 14 14 14 14 14 13 14 14 16
2 2 1 0 1 2 4 4 2 1 3 6 7 5 4 2 6 11 11 10 8 6 5 5 8 5 5 4 4 6 6 9 10 12 10 8 8 8 7 5 4 3 2 5 6 5 4 5 5 2 1 3 3 4 4 2 3 6 6 4 3 2 3 5 5 5 5 4 5 8 11 14 7 6 16 13 5 5 8 10 11 12 13 13 14 14 12 14
3 3 2 1 1 3 3 2 2 3 5 6 7 5 4 2 3 12 17 18 14 10 9 11 12 7 10 12 8 4 4 7 8 10 10 10 11 11 8 6 5 4 3 5 7 7 7 5 3 3 2 2 3 4 4 2 2 5 3 2 4 5 6 8 7 5 6 3 3 5 10 13 12 15 21 17 10 8 8 10 11 12 12 12 12 12 11 13
4 4 3 1 2 3 2 2 3 5 6 7 7 5 4 2 4 10 11 9 7 6 5 5 4 1 4 8 5 2 2 5 6 8 8 8 10 12 11 10 9 8 6 7 7 5 6 5 4 7 5 2 2 3 4 3 1 3 5 4 3 6 6 9 7 5 6 2 3 3 8 9 9 18 19 11 9 10 10 11 12 11 11 11 11 10 11 13
5 4 3 1 2 1 2 3 5 6 7 7 5 4 3 2 5 9 7 5 4 6 6 6 5 3 5 6 2 2 3 4 5 8 8 6 6 9 12 12 13 13 12 12 9 6 7 7 9 9 4 4 5 4 5 4 3 3 3 3 4 5 2 9 7 5 6 2 3 3 6 9 10 10 10 5 8 10 10 12 12 11 10 10 10 10 12 12
5 5 2 2 0 2 3 4 6 6 6 4 3 2 3 5 7 8 9 9 9 9 8 6 2 2 6 5 1 1 4 3 5 8 8 8 5 4 7 8 10 11 11 11 9 7 6 5 7 6 4 4 4 5 4 4 4 3 2 2 3 3 1 7 7 6 5 1 5 5 6 9 12 7 5 6 6 9 11 13 12 12 11 11 10 10 11 12
6 4 2 1 3 5 4 5 6 6 4 4 7 7 6 8 10 10 10 8 7 6 4 4 3 1 5 5 1 0 4 4 6 8 7 8 8 6 5 3 3 5 6 6 5 4 3 2 3 3 4 3 2 3 3 4 4 4 3 5 3 4 5 2 4 4 4 2 5 8 7 9 11 7 3 6 6 8 11 13 14 14 12 12 10 10 11 11
6 3 1 3 6 6 6 6 7 7 7 9 10 10 10 10 11 9 7 7 9 6 4 5 4 2 4 2 0 1 5 5 7 8 7 7 7 8 8 4 1 1 3 3 3 2 1 1 1 1 3 1 1 3 4 3 2 1 1 5 4 4 7 5 2 3 4 4 6 10 11 14 15 15 12 9 9 10 11 13 15 14 13 12 11 11 11 11
5 3 2 6 7 7 7 8 10 10 11 11 9 10 12 11 10 9 5 3 4 2 3 4 4 1 4 3 2 5 6 7 8 9 7 6 6 8 8 4 2 4 4 4 2 1 2 2 3 2 2 2 4 3 4 2 3 3 4 5 5 5 7 8 3 2 4 6 9 10 12 18 20 19 19 17 14 14 14 14 15 15 15 14 12 12 11 11
5 3 5 9 9 9 10 11 14 16 15 14 12 12 13 12 13 14 14 8 2 1 1 5 5 2 5 5 4 7 7 7 7 7 7 7 8 8 6 4 3 5 6 3 1 2 2 2 2 0 3 4 5 4 3 3 3 4 5 5 7 8 8 10 4 3 1 6 10 12 13 18 20 19 19 18 16 16 16 15 13 13 13 12 11 11 11 12
5 4 8 11 11 12 15 19 21 18 14 13 12 9 9 9 8 9 12 12 7 4 5 6 7 7 5 5 7 10 7 4 3 6 8 8 8 7 5 4 4 2 2 2 2 2 2 1 3 2 4 4 3 3 2 2 3 4 5 6 8 9 8 10 5 4 1 5 9 12 14 19 20 19 19 18 17 17 17 16 14 13 12 11 12 11 11 12
5 6 11 13 13 16 20 22 18 11 6 5 5 3 3 2 4 4 4 8 7 6 7 6 6 7 5 4 8 11 5 3 3 8 11 9 5 4 3 3 3 2 2 2 2 1 1 2 3 2 2 2 2 2 3 3 3 4 5 7 8 7 8 10 4 3 1 3 8 11 14 20 19 18 20 19 17 17 17 16 16 15 14 12 11 11 12 11
7 9 13 15 15 19 22 19 11 4 5 1 2 1 4 4 8 7 2 6 6 5 4 3 3 6 4 2 7 10 4 1 6 11 16 13 3 1 4 2 1 2 1 2 3 2 1 3 2 1 0 1 2 2 3 4 5 6 5 6 7 5 6 7 1 3 1 2 8 11 12 18 20 20 21 19 16 15 14 14 14 14 12 11 10 10 11 11
9 11 15 16 17 20 20 16 6 7 6 1 5 7 9 11 10 3 2 4 5 2 2 4 6 8 5 4 8 11 3 3 5 9 16 15 4 2 5 3 5 3 3 5 4 1 1 3 3 2 1 2 3 2 4 5 5 6 6 6 6 6 7 5 1 0 5 6 9 12 9 14 19 16 15 12 9 8 7 6 7 8 9 9 8 8 9 11
11 14 15 16 18 18 16 12 2 4 5 12 13 14 13 9 4 3 4 1 3 2 2 3 4 7 5 3 8 8 4 4 4 8 15 13 5 3 3 4 4 3 4 7 6 2 3 4 3 2 1 3 4 4 4 5 5 6 6 5 7 8 9 9 7 9 11 7 5 9 9 9 9 7 6 3 2 4 4 3 5 7 8 8 8 8 9 9
13 16 16 17 18 16 13 8 3 5 12 14 13 13 10 4 2 4 2 2 2 3 2 1 1 4 4 2 6 5 0 2 3 6 10 10 7 4 1 2 3 2 2 6 5 1 3 3 2 0 3 4 5 6 3 2 7 4 1 4 7 9 10 12 12 11 9 3 2 4 8 6 3 6 10 4 1 4 3 5 7 7 8 7 7 8 8 8
15 17 18 18 18 16 12 6 6 9 8 7 8 9 5 2 3 5 3 3 3 3 2 1 0 5 6 3 6 4 2 2 3 4 7 7 5 2 1 1 0 3 2 3 3 1 2 2 2 2 4 6 7 6 1 1 7 5 2 5 7 8 10 11 10 7 6 6 2 1 5 8 7 9 10 4 4 6 3 6 6 4 6 6 4 5 6 7
16 18 19 19 19 17 9 5 9 9 2 2 8 8 5 2 3 5 3 2 4 3 4 4 2 5 7 5 7 3 1 3 2 3 7 7 4 1 1 3 1 2 2 2 2 1 2 2 3 2 3 6 6 3 1 2 6 4 2 5 8 9 10 9 7 5 6 9 7 5 6 7 8 8 3 1 4 7 4 4 3 3 4 3 1 5 6 7
16 18 19 19 19 15 4 5 11 7 2 2 8 10 7 4 5 4 3 1 4 2 2 3 2 4 6 6 7 3 1 5 4 4 6 6 5 2 1 3 2 2 2 3 3 2 0 1 1 2 4 4 2 2 3 3 5 3 2 5 8 9 10 7 6 7 6 7 7 5 6 6 7 6 1 2 3 5 3 3 2 3 3 1 2 5 7 8
16 18 19 18 17 11 3 5 8 5 4 2 6 10 8 5 4 4 2 2 3 2 0 2 3 4 7 5 4 6 3 3 4 5 6 3 3 1 1 2 1 2 1 3 3 2 1 2 1 1 3 2 2 2 1 4 6 3 5 7 8 8 8 6 6 6 4 6 7 3 5 4 7 8 6 2 2 3 3 4 5 5 4 3 3 4 6 8
16 18 18 17 13 8 4 4 3 4 4 2 4 7 6 4 3 2 1 2 3 2 1 3 3 5 9 5 3 7 6 4 4 5 4 1 1 3 2 0 2 2 2 4 4 1 3 1 1 1 2 2 4 4 4 6 6 5 7 10 9 7 6 5 5 4 4 5 2 3 4 3 6 7 8 4 0 1 3 6 7 6 5 5 5 5 5 7
16 17 16 14 11 6 2 3 3 4 4 3 4 4 4 3 2 0 4 2 2 3 2 3 4 4 8 5 2 7 6 3 6 6 4 2 3 6 3 1 2 3 2 1 2 3 4 2 2 1 1 1 4 5 3 4 4 3 6 8 8 5 4 3 3 3 5 4 3 4 1 4 6 6 8 7 2 2 3 6 7 8 7 6 6 7 6 7
15 16 15 11 9 5 2 3 4 5 4 2 2 3 4 1 2 3 3 1 2 4 3 2 4 6 6 3 3 7 5 2 5 4 4 4 4 7 6 5 4 3 4 5 4 2 2 2 2 2 1 0 3 5 1 4 3 3 6 7 8 6 3 4 4 3 6 2 4 3 4 4 9 10 12 13 11 8 5 5 7 8 8 6 8 9 8 6
14 15 14 9 7 5 6 5 4 4 2 1 2 3 3 1 4 3 2 4 2 2 2 2 5 7 6 4 4 6 3 1 5 2 1 2 1 3 4 6 5 4 4 6 7 7 2 2 2 2 2 1 3 6 4 1 3 5 6 6 6 6 7 7 6 6 7 3 2 3 3 6 9 8 9 13 14 12 9 6 5 6 7 7 7 5 5 5
12 11 12 10 7 7 7 5 4 2 1 4 4 3 2 4 4 1 2 4 2 2 2 2 5 6 3 2 4 6 2 1 5 4 2 2 2 3 3 6 8 4 4 5 4 4 4 1 1 1 2 1 2 3 4 5 7 5 3 4 5 5 6 7 7 8 9 9 6 1 1 6 7 7 10 13 12 9 7 5 3 3 3 3 4 4 5 6
13 11 12 12 11 9 7 5 3 2 4 4 2 2 4 5 3 1 2 2 2 4 3 1 4 4 1 2 2 3 2 1 4 4 4 4 4 5 3 5 9 6 4 5 3 2 6 3 2 2 2 1 1 2 1 5 5 1 1 3 3 3 4 6 10 9 7 8 7 3 3 5 8 13 12 8 7 9 10 7 5 6 5 3 5 6 9 10
16 15 14 14 13 10 7 5 3 4 4 3 2 6 4 2 2 2 3 3 3 6 6 2 3 4 4 2 2 4 1 1 4 4 3 3 2 4 3 3 5 6 4 5 3 3 5 5 1 1 1 1 1 1 1 3 3 1 2 3 2 2 3 6 9 7 4 7 7 6 7 8 10 11 7 3 7 13 16 13 9 12 13 9 9 11 12 11
19 17 14 15 14 9 6 5 2 2 2 1 5 6 2 1 3 4 4 4 2 3 6 2 3 4 5 4 4 6 5 1 4 5 2 2 1 3 3 2 2 4 4 3 2 2 3 8 6 3 2 1 1 1 2 1 2 3 3 4 4 3 3 3 6 5 6 8 7 8 11 11 11 8 5 7 12 17 19 17 13 14 15 13 13 13 14 14
16 13 12 18 17 9 5 4 3 0 1 5 7 5 2 2 3 3 3 4 2 2 3 4 3 2 4 5 4 6 7 4 6 6 3 3 2 1 3 2 2 2 3 2 3 1 2 7 4 1 3 1 3 3 2 3 3 3 3 3 4 2 2 4 5 6 8 9 8 9 10 10 11 8 7 10 17 21 22 18 15 15 13 12 13 14 15 15
7 5 6 16 16 9 6 2 0 1 2 6 6 4 3 3 3 2 2 3 3 2 3 4 2 1 2 5 4 3 4 4 6 5 3 3 3 2 2 2 1 1 2 3 3 2 2 4 2 0 3 2 3 3 2 0 2 2 2 2 1 1 4 4 5 5 7 9 9 9 8 8 10 10 10 15 20 22 20 18 16 15 14 13 12 13 15 16
1 3 4 16 12 8 12 9 4 4 5 5 4 3 2 2 2 1 2 3 2 2 3 2 3 3 2 2 2 2 3 3 4 4 3 3 3 3 4 3 3 2 1 3 3 3 3 3 4 4 3 4 2 1 3 4 1 1 2 2 1 2 3 3 5 4 4 8 8 8 8 8 10 12 15 19 21 19 18 18 16 13 14 14 13 15 16 16
2 3 4 16 9 2 8 9 7 6 4 5 5 4 2 1 1 1 1 1 2 1 1 2 3 3 3 3 2 2 4 3 3 3 2 3 2 2 4 3 4 4 3 3 2 2 2 3 7 7 6 8 5 4 5 4 2 2 3 4 5 5 3 5 7 2 1 5 6 8 10 10 12 13 15 17 17 17 18 19 16 14 15 15 15 18 17 15
3 4 6 15 7 2 6 6 5 4 4 4 3 3 2 1 1 1 1 1 1 1 1 1 3 3 3 3 3 3 4 3 3 3 2 2 2 2 3 3 4 4 3 3 1 2 2 3 7 7 9 9 3 7 7 4 2 3 4 4 5 4 3 6 7 5 4 5 4 6 9 11 13 13 14 16 15 15 18 19 17 14 14 15 17 19 17 14
4 4 8 16 7 3 4 7 4 5 5 2 0 2 2 2 2 1 1 2 1 1 1 1 2 3 3 2 3 3 3 2 2 3 3 3 1 2 3 3 4 3 2 3 1 2 1 3 5 7 9 7 2 7 6 3 1 3 5 6 5 3 2 4 6 5 6 9 8 7 9 11 11 12 13 16 17 16 17 18 16 12 13 16 18 18 15 14
4 5 7 18 13 2 2 6 4 4 4 2 2 3 1 2 4 3 3 5 3 2 2 2 2 2 2 2 2 3 4 2 1 1 2 3 1 3 3 3 3 3 3 3 3 3 2 3 5 8 8 6 3 2 2 1 2 4 6 6 4 2 2 1 2 1 3 11 12 9 10 11 11 13 15 19 20 18 17 18 15 12 13 14 15 15 14 14
3 4 4 16 21 13 4 3 4 6 4 3 4 4 2 2 3 2 2 4 3 2 3 2 1 2 1 1 2 2 2 1 1 1 1 3 1 3 3 3 3 3 4 4 4 3 3 4 5 6 7 8 8 8 7 7 7 7 10 10 4 5 4 2 4 4 5 10 12 10 10 13 16 18 19 21 20 19 18 18 16 14 13 14 14 13 12 12
1 4 2 6 13 11 5 3 4 4 3 2 3 4 5 3 1 2 1 1 2 1 2 1 0 2 2 2 3 3 2 2 1 2 2 4 2 2 3 2 1 1 4 5 4 2 3 5 5 6 7 8 9 11 11 12 11 11 16 18 10 4 7 5 4 5 7 8 11 12 12 15 19 21 21 20 20 19 18 17 16 15 14 14 14 12 11 11
2 3 2 1 4 5 5 5 5 3 2 2 2 3 5 4 2 1 2 0 1 1 2 1 1 2 3 4 4 3 3 2 2 1 3 3 3 2 2 2 1 0 1 3 2 1 3 5 5 6 9 12 14 17 17 14 14 16 17 19 17 6 6 7 7 10 9 8 11 15 15 16 18 20 21 21 19 19 17 16 16 15 14 15 14 12 13 13
3 3 1 2 1 2 4 5 5 6 6 4 2 2 4 4 4 2 0 1 1 1 2 1 2 4 4 5 4 4 7 7 2 1 2 2 4 5 1 2 2 2 2 1 2 0 4 5 2 1 8 13 16 19 20 17 15 17 16 17 20 15 7 9 12 14 11 9 13 18 20 20 18 18 21 21 19 18 16 15 16 15 15 15 14 13 15 15
3 5 1 2 2 2 3 3 4 4 8 5 3 3 5 5 4 2 1 1 1 1 1 2 4 6 4 3 4 5 8 7 3 2 2 2 5 6 4 1 2 3 2 1 1 0 3 3 1 2 9 15 15 17 19 17 14 16 18 18 19 19 16 13 14 14 14 16 19 21 22 23 19 17 20 20 18 16 14 14 16 16 15 15 13 13 14 14
2 4 2 2 5 3 1 3 3 3 6 4 3 3 3 3 3 1 0 2 2 2 3 5 7 9 4 1 4 4 6 6 6 5 3 3 4 3 2 2 1 1 2 1 0 1 2 2 3 2 9 15 14 12 12 13 14 17 20 19 17 18 17 14 11 11 12 15 18 19 20 18 15 15 18 18 16 15 15 16 16 15 15 14 13 13 12 13
7 5 4 5 5 3 2 1 2 3 4 4 3 2 1 2 3 2 1 0 2 4 5 6 8 8 2 1 4 4 5 5 7 7 4 4 5 2 1 2 3 4 4 1 0 1 2 3 2 3 8 12 12 14 18 20 18 17 17 17 16 14 14 14 10 8 9 11 14 15 13 12 11 12 16 18 18 17 17 17 16 14 14 15 13 12 11 12
9 5 2 3 4 2 2 2 1 2 3 3 2 1 1 2 1 2 1 1 1 2 3 4 6 6 2 2 3 3 3 4 7 7 5 6 7 5 6 7 5 4 4 2 1 1 1 3 5 4 6 11 14 18 21 20 15 8 6 7 11 14 15 16 13 9 10 11 10 11 11 14 16 17 18 19 18 17 16 15 14 14 16 16 13 11 11 11
Wind_Direction
197 185 174 162 153 150 152 159 168 180 188 196 217 245 275 283 299 300 303 298 296 301 298 307 274 225 231 263 259 213 19 7 63 56 60 16 342 334 329 326 340 343 325 315 296 278 263 241 233 260 246 180 348 46 136 27 348 262 242 245 244 224 202 158 181 162 76 141 152 166 174 189 189 185 197 217 238 240 243 234 236 234 229 241 238 161 153 164
177 168 164 160 153 155 159 164 172 179 192 214 253 279 293 296 304 303 300 295 297 304 300 299 278 244 245 261 262 218 230 267 41 54 36 352 343 338 336 340 348 350 328 305 280 270 268 258 256 262 257 212 28 191 198 354 322 267 271 258 260 36 68 51 124 104 32 169 159 169 179 192 197 185 181 211 226 222 235 238 233 238 236 235 232 214 199 197
169 167 164 161 158 160 159 159 166 178 220 265 289 294 302 307 307 304 299 299 306 308 303 292 273 260 254 253 243 213 230 253 355 38 3 346 347 343 343 346 354 4 357 325 290 275 287 302 288 273 269 253 27 260 244 350 320 293 283 265 38 59 80 62 32 67 14 346 161 170 181 197 202 187 181 213 235 223 228 234 228 233 236 234 231 223 212 209
172 173 166 164 158 153 152 156 180 240 278 292 299 304 310 312 309 311 309 309 328 358 353 323 284 270 249 225 205 195 238 255 37 8 345 347 345 346 349 347 349 337 346 335 307 279 274 282 285 287 281 255 76 253 314 11 327 353 303 303 49 83 106 81 46 52 20 326 187 168 176 204 205 208 205 219 239 233 232 232 228 233 237 236 234 224 212 212
176 173 166 159 153 151 158 191 275 286 296 300 304 314 322 330 335 343 334 333 98 88 51 34 21 78 175 172 168 171 249 262 28 350 341 347 341 342 342 342 341 314 307 306 303 290 250 254 260 269 272 265 338 252 19 29 331 347 6 349 35 15 55 85 54 43 22 308 222 172 183 206 199 220 228 229 236 236 243 237 231 236 242 244 246 232 212 212
174 165 163 155 159 170 224 281 297 300 304 313 323 341 20 30 14 6 3 103 124 98 59 47 62 88 113 135 158 185 248 55 9 344 341 343 334 335 339 340 334 317 294 284 285 277 252 248 241 252 263 283 355 347 34 29 300 288 121 102 41 19 33 74 48 32 7 248 207 184 201 206 208 235 233 231 239 242 263 306 242 240 248 254 259 250 222 214
161 157 160 158 185 245 297 302 312 317 326 340 14 71 75 57 43 41 57 130 134 110 65 46 64 85 98 116 155 183 62 45 354 341 341 346 340 325 335 335 328 348 312 289 281 271 258 249 240 262 263 262 16 32 21 13 325 310 119 119 60 28 30 51 38 41 235 232 211 190 236 220 224 242 242 237 241 244 253 264 258 248 251 256 254 252 239 227
155 155 163 195 269 302 315 328 336 338 346 9 111 111 94 84 75 67 82 138 158 158 72 52 59 73 91 134 189 88 56 6 340 340 344 353 351 327 331 332 324 352 319 306 314 295 264 256 242 236 245 43 46 64 1 340 33 15 105 117 76 47 53 66 41 164 200 238 255 263 244 239 239 254 263 250 247 245 248 250 247 239 233 237 238 242 244 238
155 165 222 282 311 328 345 349 340 340 356 132 149 144 128 105 74 59 79 159 193 201 108 53 17 360 338 271 260 82 32 343 336 342 348 358 4 353 336 331 319 303 284 296 324 305 270 260 204 236 65 78 108 83 358 313 38 63 106 123 126 108 98 142 186 166 201 226 237 246 244 250 248 269 270 253 248 247 244 245 243 238 233 233 234 238 242 241
174 233 275 308 337 4 356 340 334 342 139 162 169 170 150 112 56 44 38 189 199 200 195 311 3 349 274 267 260 84 13 342 344 347 357 10 23 26 23 23 346 313 287 320 346 317 298 72 101 104 94 94 84 44 348 325 70 97 109 109 110 133 160 191 202 168 215 236 223 247 258 262 231 178 263 252 237 239 238 239 236 236 236 238 239 236 237 240
219 238 222 151 42 360 348 345 354 95 159 169 175 175 162 131 62 65 70 94 126 162 170 112 92 86 70 53 72 80 10 347 355 357 13 28 37 41 46 52 17 356 22 68 54 22 50 81 88 103 125 124 98 70 42 43 110 119 115 106 117 185 196 204 214 184 225 228 205 255 275 268 237 205 250 248 205 195 216 228 225 229 235 240 244 239 236 238
206 192 174 162 338 340 354 24 72 124 152 169 177 188 194 213 99 95 89 91 97 107 126 112 99 88 71 67 61 56 353 351 2 5 20 35 44 42 39 43 26 17 31 82 67 45 60 52 38 65 58 169 155 99 90 99 117 128 163 185 161 213 221 206 208 193 229 214 157 272 282 260 226 219 245 247 226 212 218 234 235 234 236 240 244 242 240 240
186 184 180 188 329 343 35 85 119 134 155 176 187 203 216 243 158 141 122 109 96 88 120 123 113 107 69 69 50 6 335 1 8 7 17 36 56 55 51 54 56 53 58 87 77 51 54 29 64 84 61 103 131 110 119 146 151 161 237 262 196 229 220 195 199 195 222 205 124 272 286 272 230 220 238 244 216 214 226 240 243 240 239 240 241 243 246 244
189 190 191 303 333 34 106 131 140 152 167 181 199 215 221 187 153 161 170 165 123 99 108 116 119 96 79 84 77 56 49 44 23 10 14 25 54 66 59 56 62 64 68 81 79 75 82 84 101 98 50 57 98 143 147 164 204 202 236 250 233 262 194 167 183 198 209 162 144 241 272 282 289 249 221 190 187 206 233 243 243 243 242 242 242 245 250 249
195 196 223 319 351 117 126 141 146 159 169 174 172 155 155 152 146 145 145 138 118 98 94 100 110 101 97 98 141 40 38 53 27 6 7 7 6 50 54 48 58 64 70 80 84 82 84 100 107 102 86 85 127 173 178 186 208 216 241 263 244 275 232 163 178 209 229 171 171 220 270 273 293 306 132 148 200 219 243 253 252 252 249 251 250 250 255 256
201 211 287 302 140 125 129 141 145 152 155 135 115 108 121 136 138 129 122 127 121 93 71 67 17 21 108 92 126 85 17 18 7 351 348 358 356 358 352 344 58 65 79 91 102 92 65 77 85 103 135 156 201 222 237 218 208 192 231 300 302 283 293 212 170 201 242 277 200 217 264 281 285 295 152 168 208 223 245 257 257 258 256 257 260 257 260 261
206 234 293 150 137 131 140 142 143 141 133 127 114 103 109 124 137 129 113 114 105 89 81 66 20 32 93 78 188 20 3 351 349 345 340 343 349 353 338 295 229 96 129 139 161 177 198 122 136 188 175 186 299 280 269 251 246 180 251 299 288 277 293 280 200 177 206 229 233 229 246 265 270 275 271 246 220 220 242 255 256 258 260 262 264 262 262 260
205 235 178 146 138 143 151 151 148 139 129 130 128 115 107 111 119 99 61 102 119 125 113 44 350 116 90 60 8 1 348 331 339 352 350 327 323 337 336 320 262 236 213 198 192 212 228 204 207 187 122 43 24 329 303 338 327 337 337 311 303 295 280 275 268 143 199 224 246 252 255 264 268 270 273 269 254 242 244 251 256 259 261 263 263 262 261 258
202 202 160 147 142 150 151 141 133 127 122 122 124 121 113 108 99 70 38 30 4 272 101 7 349 103 83 50 8 346 340 328 334 355 354 334 320 308 299 305 256 232 240 231 63 7 279 211 215 180 44 22 16 358 344 356 330 319 313 295 295 294 280 279 281 124 224 262 255 256 259 268 273 273 272 272 268 262 255 249 250 255 258 259 259 259 258 255
203 176 160 150 146 153 143 131 124 119 115 119 126 128 129 120 91 59 36 40 42 33 51 26 27 71 66 30 355 341 327 303 342 20 3 340 317 297 283 272 226 199 300 295 37 9 266 74 59 20 7 354 345 336 321 309 299 295 288 274 274 279 279 284 286 120 130 284 265 262 269 272 274 276 275 273 269 267 261 249 242 246 248 250 253 254 253 254
200 170 162 152 151 152 139 131 125 112 98 131 171 175 139 121 67 94 68 54 47 18 46 51 45 72 56 8 3 352 311 234 39 33 13 350 294 274 309 282 228 119 43 289 261 248 260 50 55 14 336 322 300 279 268 270 272 273 272 271 274 276 283 292 307 107 130 275 271 276 283 279 277 277 275 274 269 264 260 249 240 242 244 248 249 248 253 256
185 169 162 153 156 153 144 143 131 53 353 328 220 29 60 89 108 124 130 78 65 357 33 72 56 72 65 34 12 346 297 133 37 31 10 352 330 308 333 341 70 76 49 278 255 219 109 81 79 78 186 247 232 229 259 267 262 261 262 266 280 307 310 303 46 114 180 229 280 298 300 288 284 280 273 271 267 261 259 253 244 246 246 244 243 244 254 257
173 170 163 157 160 159 157 161 140 358 332 108 103 97 104 112 113 95 319 97 95 342 24 54 46 42 35 52 6 340 355 45 9 19 1 345 3 20 330 10 55 54 21 356 337 307 56 76 79 95 116 277 257 227 253 267 255 242 252 270 287 325 330 305 167 327 273 241 278 303 298 283 283 279 266 262 266 266 266 267 256 255 255 247 250 259 264 263
169 170 165 160 162 168 174 175 169 3 95 121 117 122 129 126 103 343 310 147 93 79 77 46 49 38 29 31 349 340 51 55 350 1 356 351 354 313 329 11 21 51 37 1 354 33 61 58 61 93 235 289 293 278 264 280 284 241 235 275 299 318 321 303 305 314 294 248 256 298 288 269 274 283 277 228 200 252 243 251 252 240 245 249 258 271 275 271
170 171 166 162 164 173 178 169 158 114 109 113 124 134 136 122 30 351 289 229 58 77 126 180 156 39 18 324 350 343 336 59 31 359 356 4 353 313 13 6 329 39 39 343 338 53 77 67 53 320 261 288 295 289 284 303 306 285 228 346 328 323 315 303 312 319 306 264 163 315 309 293 288 303 300 295 241 260 189 200 238 225 216 223 238 261 277 281
171 173 166 163 166 171 170 160 156 141 111 107 143 151 141 109 23 9 284 216 58 32 360 12 291 11 7 352 3 338 238 64 44 3 5 15 1 308 333 337 350 42 20 330 324 261 87 115 185 288 294 293 285 279 306 24 310 307 32 351 325 318 306 301 313 315 302 304 280 209 290 291 296 299 299 307 299 286 206 202 235 225 205 200 219 273 299 305
170 173 167 163 166 168 165 161 166 164 144 162 179 185 180 213 352 7 264 210 58 6 339 4 331 349 358 344 341 318 230 341 319 34 23 8 360 266 314 10 29 48 45 318 314 136 103 150 192 265 291 284 284 287 10 6 306 303 42 336 315 306 295 293 303 281 275 304 289 214 222 268 290 300 305 81 300 293 268 240 212 192 212 201 322 338 333 326
168 171 168 162 165 170 164 149 163 181 282 203 201 208 213 264 315 321 263 100 37 339 333 2 324 346 346 326 348 31 98 317 326 37 12 356 353 278 235 26 357 35 63 295 332 39 56 228 199 276 281 283 310 351 356 313 278 297 17 321 300 288 282 278 277 271 274 303 293 207 198 254 282 297 329 140 289 306 312 303 257 227 253 278 349 346 339 335
165 169 165 160 163 167 134 128 159 203 265 244 210 213 228 280 297 273 252 91 17 337 148 349 339 349 335 312 13 42 30 351 12 344 332 3 28 6 77 47 103 104 136 249 309 338 86 43 30 286 275 292 339 322 292 252 254 311 329 289 268 253 258 256 251 270 275 274 279 205 176 262 289 299 307 282 277 323 344 321 299 281 277 280 311 328 334 347
163 167 164 159 160 157 109 87 122 197 214 206 197 210 236 273 271 253 56 56 351 358 122 359 352 322 333 338 48 25 16 28 6 318 320 101 65 51 73 259 208 201 213 214 253 243 117 75 255 261 276 293 320 290 222 233 269 321 308 280 270 240 219 230 239 258 267 256 273 114 143 274 293 294 302 313 72 52 339 316 302 285 272 276 289 293 317 355
161 163 165 162 160 164 137 71 86 150 169 175 191 218 247 256 269 340 68 61 320 358 4 9 6 334 353 15 28 2 3 12 357 352 11 23 10 24 33 339 281 254 249 235 248 183 152 184 187 144 291 266 293 279 201 202 256 289 281 285 299 277 205 223 219 196 255 278 81 89 91 271 267 275 298 313 289 220 271 292 290 281 276 291 307 307 325 355
156 160 162 157 159 158 106 111 127 145 153 172 227 256 260 253 34 43 46 338 298 3 16 2 352 342 343 343 357 354 344 354 5 14 6 352 33 34 24 16 348 320 7 358 323 293 192 170 133 132 119 299 296 300 239 166 195 254 288 309 318 318 320 288 277 259 279 309 99 73 11 280 262 275 285 290 292 296 300 273 264 276 287 321 347 349 348 344
148 161 156 136 143 131 94 114 136 144 152 314 287 265 265 14 52 49 360 352 341 356 338 274 308 311 303 310 7 352 295 336 353 352 325 300 55 62 58 41 5 324 338 335 329 334 354 121 147 164 123 95 308 318 328 302 308 319 327 334 328 329 327 307 307 307 299 319 95 83 13 286 273 285 287 294 309 326 333 303 273 288 311 339 348 338 314 294
136 156 148 116 110 109 91 100 117 114 330 306 271 272 358 65 70 76 16 14 360 296 284 284 301 291 292 15 22 350 303 79 355 331 314 306 9 41 61 48 22 344 297 312 341 342 324 334 337 10 55 25 322 340 343 318 311 329 356 327 317 325 317 308 314 315 308 313 320 54 5 284 290 320 320 315 321 343 358 340 324 325 319 304 282 277 301 317
122 122 117 93 77 76 68 71 82 29 332 296 269 5 46 77 68 20 24 359 313 315 302 282 301 289 27 84 92 31 12 46 5 349 360 5 24 21 6 22 15 1 323 330 8 326 303 307 86 73 47 333 349 63 12 313 304 346 11 295 308 339 323 298 290 296 304 303 297 250 235 271 291 306 311 307 323 5 13 3 1 351 334 261 268 316 343 343
110 98 88 67 50 46 50 54 31 353 318 281 65 56 59 84 14 6 18 337 310 325 312 299 334 341 19 23 82 68 51 284 338 336 45 48 34 23 11 16 9 5 7 348 345 340 314 301 237 139 129 133 33 125 152 323 326 318 304 317 326 273 277 287 282 287 293 279 281 278 284 301 306 308 316 320 341 358 354 346 353 350 343 337 331 339 343 340
95 85 67 40 25 26 40 45 17 321 307 5 75 70 61 67 9 4 4 343 316 305 306 330 22 359 1 356 17 10 335 296 338 330 32 45 28 36 13 41 42 10 23 357 330 35 325 294 288 285 280 153 141 229 210 202 287 296 326 344 325 252 215 271 278 290 296 286 293 305 307 311 307 311 347 337 332 342 338 335 342 344 343 342 339 338 337 336
92 89 62 22 7 6 22 46 54 114 105 68 80 88 61 48 28 9 356 335 288 268 327 18 33 356 351 350 4 355 335 345 351 344 11 12 8 44 346 19 77 33 23 325 290 42 310 290 306 346 300 235 155 231 244 179 228 294 327 326 321 304 278 290 291 301 304 294 293 302 307 304 294 305 344 330 324 331 331 329 334 339 340 336 335 339 339 337
96 118 63 5 359 23 38 47 35 340 74 70 74 90 61 52 59 32 353 325 274 281 8 33 15 21 23 348 347 3 1 1 345 344 21 5 352 47 33 13 30 72 19 314 302 349 299 286 325 168 259 252 175 225 290 204 193 252 276 243 148 257 268 291 303 295 292 288 289 302 308 298 291 300 315 316 319 325 326 328 332 336 334 331 341 347 342 338
40 138 49 355 358 53 50 55 61 25 59 65 53 74 61 60 86 82 355 333 298 328 21 25 359 4 14 355 14 18 356 342 335 345 11 356 341 43 64 33 346 2 324 284 290 308 276 259 288 283 262 282 285 306 341 343 330 227 275 274 266 255 239 270 276 254 273 287 290 301 299 288 288 294 302 310 315 318 322 329 331 329 328 334 348 348 340 338
329 132 25 351 348 12 19 45 52 27 64 70 58 72 51 16 52 81 124 299 304 27 19 12 21 14 349 353 41 18 338 320 331 336 350 14 3 25 57 35 347 352 319 281 269 312 317 275 289 304 305 302 322 37 31 11 358 308 302 301 295 292 289 291 286 258 248 281 287 296 291 282 278 285 301 309 309 312 321 327 326 325 331 339 345 341 337 337
23 102 3 352 6 360 8 58 49 14 70 67 48 64 28 349 341 3 148 228 264 232 224 27 20 16 16 359 344 352 341 315 327 342 332 347 340 348 36 17 339 332 308 303 341 27 355 288 284 291 285 289 347 72 64 47 360 270 260 267 280 286 274 279 296 318 304 285 286 280 273 272 274 281 299 307 305 311 321 326 328 334 337 338 337 334 333 331
48 87 4 356 356 277 20 76 65 32 71 84 41 68 15 4 8 345 7 14 340 305 333 74 9 7 41 9 317 339 354 296 277 332 324 308 332 32 32 4 335 316 295 304 8 48 341 268 290 296 287 288 97 102 90 78 203 245 254 252 243 256 280 275 298 330 310 286 282 274 269 273 282 288 299 307 307 309 319 328 337 343 336 333 333 332 333 330
68 99 23 13 28 86 64 74 93 82 87 143 116 79 54 36 29 13 13 19 15 342 357 43 20 360 19 347 297 316 350 339 240 318 332 313 18 73 47 14 349 348 1 355 358 2 314 296 321 316 312 325 357 50 44 7 283 293 294 275 221 178 49 360 303 314 266 268 269 270 272 273 283 295 301 305 305 307 319 330 337 338 330 330 333 332 332 330
90 91 37 24 40 61 69 49 96 108 109 123 92 50 26 82 48 349 353 15 11 337 344 27 27 324 293 263 251 266 306 313 298 14 3 299 297 105 64 13 351 13 26 1 331 322 292 296 315 311 316 327 325 325 330 322 316 311 302 296 257 166 166 229 280 275 261 271 272 268 270 276 288 297 300 302 302 307 321 329 330 328 326 329 332 331 330 329
85 56 40 22 38 54 66 32 50 95 112 101 81 27 12 50 102 225 244 5 14 320 319 341 283 263 263 290 293 278 239 210 257 336 321 297 321 86 101 42 18 46 18 341 311 292 280 275 266 259 270 288 292 294 301 309 309 299 293 294 288 195 175 213 264 258 257 278 280 270 269 278 291 300 302 303 304 307 317 327 325 321 324 329 330 328 326 327
68 59 17 24 57 56 61 44 29 50 51 4 41 26 12 27 50 200 202 170 51 290 271 290 347 329 337 334 323 312 321 303 229 294 311 293 322 354 151 135 85 137 329 317 261 245 288 285 272 252 249 258 272 282 289 295 289 282 283 286 287 271 169 180 227 244 256 280 277 272 276 282 292 299 300 301 303 305 313 322 319 317 323 327 327 326 325 325
51 101 329 336 46 39 42 30 15 43 50 41 84 51 15 35 37 8 301 191 168 230 250 232 30 19 1 331 321 330 335 329 272 282 342 333 333 331 277 134 119 190 229 226 180 283 295 283 305 289 260 260 264 271 278 279 273 271 270 271 279 279 233 208 233 242 244 251 259 271 280 283 284 289 292 294 296 299 309 316 314 315 319 322 323 322 321 321
71 108 43 345 55 70 40 334 317 49 52 42 77 53 17 33 36 7 310 274 245 121 351 333 360 7 3 319 308 331 346 344 324 335 15 353 326 318 302 314 139 184 231 244 168 158 267 277 7 341 287 280 267 257 260 265 269 273 271 266 271 275 265 247 243 243 240 243 252 264 273 275 276 278 280 283 286 292 304 310 312 316 318 318 317 312 313 317
119 120 109 101 93 79 33 304 302 71 56 26 52 54 3 11 22 360 288 321 339 27 3 341 345 344 340 297 290 319 2 353 313 310 350 327 311 313 294 314 17 306 295 317 72 199 233 306 31 353 295 295 287 274 275 283 284 281 278 276 274 277 278 269 253 245 245 249 257 263 266 269 271 268 270 278 288 298 306 308 311 316 316 313 306 300 305 315
89 99 127 122 89 21 332 6 9 59 57 26 38 59 327 8 21 333 297 323 333 351 349 338 336 333 316 228 282 322 22 356 301 298 315 291 290 313 287 297 353 339 306 276 163 236 251 283 323 323 300 296 300 313 316 311 300 282 272 274 278 285 294 291 275 245 232 249 267 270 268 272 279 284 289 295 301 302 304 307 310 313 312 305 294 291 301 313
93 87 97 105 86 24 347 41 35 63 70 30 24 56 319 15 32 283 290 164 222 348 2 332 326 324 307 305 325 356 4 311 285 288 287 265 268 277 269 270 279 278 278 288 244 232 285 293 302 322 304 288 299 316 318 312 306 290 255 267 290 300 300 295 287 261 234 239 263 273 273 281 292 301 302 302 303 304 304 309 313 315 311 301 286 285 301 314